Regional Weather Roundup
Issued by NWS Columbia, SC

Home | Current Version | Previous Version | Text Only | Print | Product List | Glossary On
Versions: 1 2 3 4 5 6 7 8 9 10 11 12 13 14 15 16 17 18 19 20 21 22 23 24 25 26 27 28 29 30 31 32 33 34 35 36 37 38 39 40 41 42 43 44
000
ASUS42 KCAE 021410
RWRCAE
REGIONAL WEATHER ROUNDUP
NATIONAL WEATHER SERVICE COLUMBIA SC
1000 AM EDT THU OCT 02 2014

NOTE: "FAIR" INDICATES FEW OR NO CLOUDS BELOW 12,000 FEET WITH NO
SIGNIFICANT WEATHER AND/OR OBSTRUCTIONS TO VISIBILITY.

NOT ALL STATIONS ARE QUALITY CONTROLLED BY THE NATIONAL
WEATHER SERVICE. USE DATA WITH CAUTION...ESPECIALLY
DEWPOINT OBSERVATIONS.

SCZ001>056-GAZ040-063>065-077-021500-
...UPSTATE SOUTH CAROLINA...

CITY           SKY/WX    TMP DP  RH WIND       PRES   REMARKS
ANDERSON       SUNNY     71  64  78 CALM      30.14R
LIBERTY        FAIR      68  63  82 CALM      30.13S
SPARTANBURG    FAIR      73  64  73 CALM      30.13R
CLEMSON        SUNNY     72  63  73 VRB3      30.15R
GREENVILLE     SUNNY     74  62  66 CALM      30.15R
GREENWOOD      SUNNY     73  64  73 SW6       30.15R
GREER          SUNNY     72  63  73 VRB3      30.13R
ROCK HILL      CLOUDY    68  64  87 SW3       30.14R
CHESTER        FAIR      73  64  73 CALM      30.18R
LAURENS        FAIR      70  63  78 SW3       30.15R


...CENTRAL SOUTH CAROLINA...

CITY           SKY/WX    TMP DP  RH WIND       PRES   REMARKS
COLUMBIA APT   SUNNY     76  61  59 SW3       30.12R
COLUMBIA OWENS SUNNY     76  61  59 W3        30.14R
DARLINGTON     SUNNY     73  63  68 W5        30.14R
FLORENCE       SUNNY     75  64  68 W6        30.13R
MCENTIRE ANGB  SUNNY     75  63  66 W3        30.14R
ORANGEBURG     SUNNY     73  64  73 CALM      30.14R
SUMTER SHAW    SUNNY     74  60  60 W6        30.12R
NEWBERRY       FAIR      72  61  68 W5        30.16S
AIKEN          FAIR      73  64  73 CALM      30.16S
BARNWELL       FAIR      73  66  78 CALM      30.14R
MANNING        FAIR      73  72  94 CALM      30.14R
CAMDEN         FAIR      68  68 100 CALM      30.15R
LANCASTER      PTSUNNY   70  70 100 SW3       30.14R
WINNSBORO      FAIR      72  63  73 W7        30.14R


...EASTERN AND COASTAL SOUTH CAROLINA...

CITY           SKY/WX    TMP DP  RH WIND       PRES   REMARKS
MYRTLE BEACH   SUNNY     75  66  73 N6        30.12R
N MYRTLE BCH   SUNNY     75  68  78 CALM      30.12R
CONWAY         FAIR      72  72 100 CALM      30.13R
MARION         FAIR      73  63  68 CALM      30.13R
HARTSVILLE     FAIR      75  46  35 SW5       30.14R
FLORENCE       SUNNY     75  64  68 W6        30.13R
DARLINGTON     SUNNY     73  63  68 W5        30.14R
CHARLESTON APT SUNNY     79  68  69 CALM      30.12R
MOUNT PLEASANT FAIR      75  72  88 CALM      30.12R
WALTERBORO     SUNNY     72  72 100 CALM      30.14R
BEAUFORT       SUNNY     76  68  76 NE3       30.12R


...EASTERN GEORGIA...

CITY           SKY/WX    TMP DP  RH WIND       PRES   REMARKS
AUGUSTA BUSH F SUNNY     71  65  81 CALM      30.12R
AUGUSTA DANIEL SUNNY     75  61  61 CALM      30.14R
THOMSON        SUNNY     74  69  82 CALM      30.17R
WASHINGTON     FAIR      77  73  88 CALM      30.13R
CLAXTON        FAIR      73  72  94 CALM      30.12R
SYLVANIA       SUNNY     76  72  89 CALM      30.13S
STATESBORO     SUNNY     73  73  98 E5        30.12R
SAVANNAH       SUNNY     78  69  73 NE5       30.11R


...SOUTHERN NORTH CAROLINA...

CITY           SKY/WX    TMP DP  RH WIND       PRES   REMARKS
CHARLOTTE      MOSUNNY   71  63  75 CALM      30.13R
MONROE         MOSUNNY   70  65  84 SW3       30.13R
WADESBORO      MOSUNNY   71  66  83 CALM      30.12R
ROCKINGHAM     SUNNY     72  65  80 W7        30.13R
RUTHERFORDTON  SUNNY     71  63  76 W5        30.15R
ASHEVILLE      CLOUDY    58  57  97 W3        30.20R FOG

$$


USA.gov is the U.S. government's official web portal to all federal, state and local government web resources and services.